Home   Weather   42°58'N, 88°02'W   Past weeks
Flag for USA

Past Weather in 42°58'N, 88°02'W, USA — Yesterday and Last 2 Weeks

Now
45 °F

Light rain. Mostly cloudy.


Feels Like: 38 °F
Forecast: 52 / 39 °F
Wind: 15 mph from Southwest

Location: Milwaukee / Timmerman

Current Time: Oct 22, 2019 at 9:37:25 pm

Latest Report: Oct 22, 2019 at 8:55 pm


Visibility: 10 mi

Pressure: 29.66 "Hg

Humidity: 71%

Dew Point: 36 °F

Location of 42°58'N, 88°02'WLocation

Past Weather in 42°58'N, 88°02'W — Graph

°F

42°58'N, 88°02'W Temperature Yesterday

Maximum temperature yesterday: 64 °F (at 4:45 pm)
Minimum temperature yesterday: 45 °F (at 12:15 am)
Average temperature yesterday: 51 °F

High & Low Weather Summary for the Past Weeks

 TemperatureHumidityPressure
High70 °F (Oct 9, 12:45 pm)100% (Oct 18, 2:55 am)30.25 "Hg (Oct 18, 2:55 am)
Low32 °F (Oct 14, 4:55 am)29% (Oct 9, 1:45 pm)29.35 "Hg (Oct 22, 5:35 am)
Average46 °F74%29.91 "Hg
* Reported Oct 7 7:45 pm — Oct 22 7:45 pm, 42°58'N, 88°02'W. Weather by CustomWeather, © 2019

Note: Actual official high and low records may vary slightly from our data, if they occured in-between our weather recording intervals... More about our weather records

Advertising

42°58'N, 88°02'W Weather History for the Previous 24 Hours

Scroll right to see more
 ConditionsComfort  
Time TempWeatherWind HumidityBarometerVisibility
7:45 pm
Tue, Oct 22
45 °FMostly cloudy.8 mph76%29.66 "Hg10 mi
6:45 pm45 °FOvercast.13 mph76%29.65 "Hg10 mi
5:45 pm43 °FMostly cloudy.14 mph81%29.63 "Hg10 mi
4:45 pm46 °FMostly cloudy.16 mph62%29.60 "Hg10 mi
3:45 pm46 °FMostly cloudy.16 mph66%29.57 "Hg10 mi
2:45 pm45 °FOvercast.28 mph71%29.54 "Hg10 mi
1:45 pm46 °FOvercast.18 mph66%29.51 "Hg10 mi
12:45 pm46 °FOvercast.23 mph66%29.49 "Hg10 mi
11:45 am46 °FOvercast.16 mph66%29.48 "Hg10 mi
10:45 am45 °FOvercast.16 mph81%29.44 "Hg7 mi
9:45 am46 °FOvercast.20 mph71%29.42 "Hg10 mi
8:45 am46 °FOvercast.14 mph71%29.40 "Hg10 mi
7:45 am46 °FOvercast.15 mph71%29.37 "Hg10 mi
7:15 am45 °FMostly cloudy.17 mph76%29.36 "Hg10 mi
6:55 am45 °FMostly cloudy.18 mph76%29.36 "Hg10 mi
6:35 am46 °FLight rain. Mostly cloudy.18 mph71%29.36 "Hg7 mi
6:15 am46 °FMostly cloudy.21 mph71%29.35 "Hg10 mi
5:55 am46 °FOvercast.18 mph71%29.35 "Hg10 mi
5:35 am46 °FMostly cloudy.17 mph71%29.35 "Hg10 mi
5:15 am46 °FOvercast.21 mph71%29.36 "Hg10 mi
4:55 am46 °FMostly cloudy.14 mph71%29.36 "Hg10 mi
4:35 am46 °FMostly cloudy.20 mph66%29.36 "Hg10 mi
4:15 am46 °FMostly cloudy.17 mph66%29.36 "Hg10 mi
3:55 am46 °FMostly cloudy.18 mph66%29.37 "Hg10 mi
3:35 am48 °FMostly cloudy.28 mph62%29.38 "Hg10 mi
3:15 am48 °FMostly cloudy.25 mph62%29.39 "Hg10 mi
2:55 am50 °FOvercast.25 mph58%29.39 "Hg10 mi
2:35 am50 °FMostly cloudy.20 mph58%29.38 "Hg10 mi
2:15 am50 °FOvercast.15 mph58%29.39 "Hg10 mi
1:55 am50 °FOvercast.21 mph58%29.40 "Hg10 mi
1:35 am50 °FOvercast.18 mph58%29.41 "Hg10 mi
1:15 am50 °FMostly cloudy.17 mph58%29.41 "Hg10 mi
12:55 am50 °FPassing clouds.16 mph58%29.42 "Hg10 mi
12:35 am50 °FPartly cloudy.13 mph58%29.42 "Hg10 mi
12:15 am50 °FPassing clouds.17 mph58%29.43 "Hg10 mi
11:55 pm
Mon, Oct 21
50 °FPassing clouds.13 mph58%29.43 "Hg10 mi
11:35 pm50 °FOvercast.13 mph58%29.44 "Hg10 mi
11:15 pm52 °FOvercast.14 mph54%29.45 "Hg10 mi
10:55 pm52 °FOvercast.14 mph54%29.46 "Hg10 mi
10:35 pm52 °FOvercast.15 mph54%29.46 "Hg10 mi
10:15 pm52 °FMostly cloudy.15 mph54%29.46 "Hg10 mi
9:55 pm52 °FMostly cloudy.15 mph54%29.47 "Hg10 mi
9:35 pm52 °FMostly cloudy.17 mph50%29.48 "Hg10 mi
9:15 pm52 °FMostly cloudy.17 mph50%29.47 "Hg10 mi
Weather by CustomWeather, © 2019

See weather overview